Location: Powder Track
(41.8531°N, 72.3584°W)
Time: 23:19:02
(UTC+00:00)

Vanguard 2 Rocket - Pass Details

Date: 06 August 2021
Orbit: 555 x 3324 km, 32.9° (Epoch: 18 September)

Event Time Altitude Azimuth Distance (km) Brightness Sun altitude
Rises 11:38:12 0° 246° (WSW) 3,356 9.2 18.8°
Reaches altitude 10° 11:41:21 10° 233° (SW) 2,146 8.4 19.4°
Maximum altitude 11:45:08 25° 178° (S) 1,215 7.7 20.1°
Drops below altitude 10° 11:48:24 10° 122° (ESE) 1,828 9.5 20.7°
Sets 11:50:51 0° 107° (ESE) 2,740 10.6 21.2°
